Погода в Куракине

Россия / Республика Мордовия     54°57′35″N   46°08′05″E
темп.,
°C
ветер,
м/с
пор.,
м/с
влажн.,
%
обл.,
%
осадки,
мм/ч
давл.,
гПа
погр.,
м
5 марта, пт
пт500:00−7зсз3390100 0.0 99943
03:00−7сз2293100 0.0 100021
06:00−7ссз1297100 0.5 100049
09:00−7с3495100 0.9 1003242
12:00−6сз349263 0.0 1005270
15:00−6зсз469132 0.0 1007332
18:00−9з34920 0.0 100841
21:00−10юз349230 0.0 101069
6 марта, сб
сб600:00−9з499388 0.1 1011166
03:00−12з499555 0.1 1013155
06:00−15зсз479447 0.0 101499
09:00−14зсз239024 0.0 1016136
12:00−10зюз23790 0.0 1016305
15:00−8юз36850 0.0 1014466
18:00−12юз34940 0.0 101436
21:00−12зюз349623 0.2 101490
7 марта, вс
вс700:00−14з239780 0.3 101321
03:00−16з229883 0.3 101320
06:00−17юз229937 0.0 101220
09:00−14ююз369539 0.0 1011203
12:00−9ююз599291 0.0 1008444
15:00−6ююз7118895 0.0 1005749
18:00−7ююз71590100 0.1 1002793
21:00−6ююз81594100 0.8 998981
8 марта, пн
пн800:00−6з81384100 1.1 995712
03:00−11зюз6158566 1.1 998404
06:00−12юз613910 0.0 999326
09:00−10юз8148732 0.0 999433
12:00−6юз8148433 0.0 998703
15:00−5ююз6108550 0.0 996883
18:00−6ююз3796100 1.3 995280
21:00−11зюз4695100 1.4 997103
9 марта, вт
вт900:00−10зсз8149092 0.5 999520
03:00−10з7149296 0.6 1003508
06:00−12з5119398 0.1 1007365
09:00−13з6109298 0.1 1009391
12:00−11з5790100 0.0 1010476
15:00−11зсз4689100 0.1 1011516
18:00−15з339480 0.0 101225
21:00−16з339686 0.1 101332